Regional Weather Roundup
Issued by NWS Upton, NY

Current Version | Previous Version | Graphics & Text | Print | Product List | Glossary Off
Versions: 1 2 3 4 5 6 7 8 9 10 11 12 13 14 15 16 17 18 19 20 21 22 23 24 25 26 27 28 29 30 31 32 33 34 35 36 37 38 39 40 41 42 43 44 45 46 47 48 49 50

000
ASUS41 KOKX 311705
RWROKX

REGIONAL WEATHER ROUNDUP
NATIONAL WEATHER SERVICE NEW YORK NY
100 PM EDT SUN AUG 31 2014

NOTE: "FAIR" INDICATES FEW OR NO CLOUDS BELOW 12,000 FEET WITH NO
SIGNIFICANT WEATHER AND/OR OBSTRUCTIONS TO VISIBILITY.

NYZ071-072-176-178-NJZ106-104-311800-
NEW YORK CITY METRO AREA


CITY           SKY/WX    TMP DP  RH WIND       PRES   REMARKS
CENTRAL PARK   PTSUNNY   86  70  58 SW8       30.06F HX  90
LAGUARDIA APRT PTSUNNY   86  70  58 SW10      30.03F HX  90
KENNEDY INTL   PTSUNNY   83  72  69 S7        30.05F
NEWARK/LIBERTY PTSUNNY   88  71  57 SW9G18    30.03F HX  94
BRNX BOT. GARD   N/A     86  70  58 SW2       30.04F HX  90
TETERBORO      CLOUDY    87  70  56 SW13      30.02F HX  92
$$

NYZ177-179-078>081-311800-
LONG ISLAND NEW YORK

CITY           SKY/WX    TMP DP  RH WIND       PRES   REMARKS
FARMINGDALE    MOSUNNY   81  73  76 S9        30.06F
ISLIP          PTSUNNY   81  73  76 SW9       30.05F
SHIRLEY        CLOUDY    78  72  81 S9        30.07F
WESTHAMPTON    CLOUDY    80  72  76 SW14G25   30.08F
MONTAUK POINT    N/A     76  70  82 SW8G18    30.09F
$$

NYZ052-065-067-311800-
HUDSON VALLEY

CITY           SKY/WX    TMP DP  RH WIND       PRES   REMARKS
WHITE PLAINS   CLOUDY    81  71  71 W7        30.05F
NEWBURGH       CLOUDY    77  72  83 SW9       30.07F
MONTGOMERY     PTSUNNY   80  71  74 SW6       30.04F
POUGHKEEPSIE   CLOUDY    77  69  76 SW7       30.03F
ALBANY         LGT RAIN  75  70  84 S9        30.01F
$$

NJZ001-105-106-008-010-013-015-019>022-104-311800-
NEW JERSEY

CITY           SKY/WX    TMP DP  RH WIND       PRES   REMARKS
NEWARK/LIBERTY PTSUNNY   88  71  57 SW9G18    30.03F HX  94
TETERBORO      CLOUDY    87  70  56 SW13      30.02F HX  92
CALDWELL       PTSUNNY   84  70  62 NW7       30.04F
MORRISTOWN     PTSUNNY   84  72  65 W3        30.04F
SOMERVILLE     PTSUNNY   86  72  62 CALM      30.01F HX  92
LINDEN         PTSUNNY   92  73  54 W5        30.05F HX 100
SUSSEX         PTSUNNY   82  72  71 SW8       30.05F
ANDOVER          N/A     81  72  74 VRB5      30.06F
TRENTON        MOSUNNY   86  72  62 SW12      30.03F HX  92
MILLVILLE      MOSUNNY  N/A N/A N/A S8        30.06F
ATLANTIC CITY  MOSUNNY   88  72  58 SW10G22   30.06F HX  94
WRIGHTSTOWN    MOSUNNY   90  72  56 SW16      30.02F HX  97
TOMS RIVER     PTSUNNY   90  72  55 SW12      30.05F HX  96
BELMAR         MOSUNNY   90  72  55 SW8       30.05F HX  96
$$

PAZ047>061-062-071-311800-
EASTERN PENNSYLVANIA

CITY           SKY/WX    TMP DP  RH WIND       PRES   REMARKS
PHILADELPHIA   PTSUNNY   90  72  55 SW17      30.04F HX  97
ALLENTOWN      MOSUNNY   86  70  58 SW7G18    30.03F HX  90
SCRANTON       CLOUDY    82  69  64 SW10      30.04F
$$

CTZ002-004>006-009-010-012-RIZ004-006-007-MAZ004-011-015-311800-
SOUTHERN NEW ENGLAND
 IN CT

CITY           SKY/WX    TMP DP  RH WIND       PRES   REMARKS
BRADLEY INTL   CLOUDY    82  70  66 S13       30.02F
HARTFORD       CLOUDY    79  70  74 S7        30.03F
DANBURY        CLOUDY    78  70  76 W10       30.07F
WTRBRY/OXFORD  CLOUDY    77  70  78 SW8       30.09F
BRIDGEPORT     MOSUNNY   83  72  69 SW9       30.05F
MERIDEN        CLOUDY    80  70  71 W7        30.05F
NEW HAVEN      CLOUDY    81  72  74 S9        30.05F
CHESTER        CLOUDY    77  72  83 SW8G16    30.07F
GROTON         CLOUDY    75  71  87 SW10      30.06F
WILLIMANTIC    CLOUDY    78  70  76 SW10      30.06F

 IN RI

CITY           SKY/WX    TMP DP  RH WIND       PRES   REMARKS
PROVIDENCE     CLOUDY    80  70  71 SW9       30.05F
BLOCK ISLAND   CLOUDY    75  68  78 SW16      30.09F
WESTERLY       CLOUDY    77  70  79 SW10G18   30.07F

 IN MA

CITY           SKY/WX    TMP DP  RH WIND       PRES   REMARKS
BOSTON         PTSUNNY   83  69  62 SW22      30.01F
WORCESTER      CLOUDY    73  68  84 SW10      30.07F
WESTFIELD      CLOUDY    78  70  76 S8        30.03F
PROVINCETOWN   MOSUNNY   79  68  69 SW20      30.05F
NANTUCKET      PTSUNNY   73  67  81 S14       30.10F
$$

ANZ330-335-338-340-345-350-353-355-311800-
COASTAL MARINE OBSERVATIONS


STATION/POSITION TIME  SKY/WX   TEMP    WIND        PRES    VSBY  WAVE
                                AIR SEA DIR/SP/G                  HT/PER
                 (UTC)          (F)     (DEG/KT/KT) (MB)    (MI)  (FT/S)
NY HARB ENTRANCE NOT AVBL
4S FIRE IS       NOT AVBL
23SW MTP         1700                                 N/A           3/ 4
HUDSON CANYON    1700            75 73  210/ 14/ 16 1019.3          3/10
EXECUTION ROCKS  1700            80 74  200/  8/ 10   N/A
WESTERN LI SOUND 1700            78     240/  4/  6   N/A           0
CENTRAL LI SOUND 1600            74 72  210/  4/  4   N/A           1/ 3
EASTERN LI SOUND 1600            74 69  210/ 10/ 12   N/A
ROBBINS REEF     1700            83     230/  9/ 12   N/A
$$


>>>>>>>>>>>>>>>>>>>>>>>>>>>> KEY <<<<<<<<<<<<<<<<<<<<<<<<<<<
>                                                          <
>     SKY/WX - SKY CONDITION/PRESENT WEATHER               <
>     TMP    - TEMPERATURE IN FAHRENHEIT                   <
>     DP     - DEWPOINT IN FAHRENHEIT                      <
>     RH     - RELATIVE HUMIDITY IN PERCENT                <
>     WIND   - DIRECTION AND SPEED IN MPH                  <
>     PRES   - MEAN SEA LEVEL PRESSURE IN INCHES OF HG     <
>     WCI    - WIND CHILL INDEX                            <
>     VSB    - VISIBILITY IN MILES                         <
>     HX     - HEAT INDEX                                  <
>     TC     - TEMPERATURE IN CELSIUS                      <
>     VRB    - VARIABLE WIND DIRECTION                     <
>                                                          <
>>>>>>>>>>>>>>>>>>>>>>>>>>>> KEY <<<<<<<<<<<<<<<<<<<<<<<<<<<





USA.gov is the U.S. government's official web portal to all federal, state and local government web resources and services.